Location: Henham
(51.9333°N, 0.2500°E)
Time: 16:19:27
(UTC+00:00)

STARLINK-28 - Visible Passes

Search period start: 25 January 2020 00:00
Search period end: 04 February 2020 00:00
Orbit: 449 x 451 km, 53.0° (Epoch: 25 January)

Date Brightness Start Highest point End Pass type
(mag) Time Alt. Az. Time Alt. Az. Time Alt. Az.
25 Jan 4.7 05:00:42 35° E 05:00:42 35° E 05:03:03 10° ENE visible
25 Jan 3.2 06:34:17 17° W 06:36:55 75° N 06:40:28 10° E visible
26 Jan 6.2 04:24:32 16° E 04:24:32 16° E 04:25:20 10° E visible
26 Jan 3.1 05:58:07 42° W 05:59:13 79° N 06:02:46 10° E visible
27 Jan 3.4 05:21:57 68° ENE 05:21:57 68° ENE 05:25:07 10° ENE visible
27 Jan 3.2 06:55:32 10° W 06:59:01 79° N 07:02:35 10° E visible
28 Jan 5.3 04:45:46 26° ENE 04:45:46 26° ENE 04:47:28 10° ENE visible
28 Jan 3.2 06:19:21 24° WNW 06:21:23 75° N 06:24:56 10° E visible
29 Jan 6.6 04:09:35 12° ENE 04:09:35 12° ENE 04:09:53 10° ENE visible
29 Jan 3.2 05:43:11 57° WNW 05:43:45 73° N 05:47:19 10° E visible
30 Jan 4.1 05:07:02 48° ENE 05:07:02 48° ENE 05:09:44 10° E visible
30 Jan 3.3 06:40:37 14° WNW 06:43:37 74° SSW 06:47:10 10° ESE visible
31 Jan 5.8 04:30:54 20° E 04:30:54 20° E 04:32:11 10° E visible
31 Jan 3.1 06:04:30 31° WNW 06:06:05 84° SSW 06:09:38 10° ESE visible
01 Feb 3.0 05:28:26 82° WNW 05:28:34 88° NNE 05:32:08 10° ESE visible
02 Feb 4.7 04:52:24 36° E 04:52:24 36° E 04:54:39 10° E visible
02 Feb 4.0 06:26:00 17° W 06:28:20 40° SSW 06:31:40 10° SE visible
03 Feb 6.2 04:16:26 15° E 04:16:26 15° E 04:17:11 10° E visible
03 Feb 3.6 05:50:03 38° WSW 05:50:56 48° SSW 05:54:22 10° SE visible
